Back to catalog

BREEZE-M DEB

TANK

AliveHEO
NORAD 34712·DEBRIS·🇷🇺 Russia

Launched Apr 3, 2009 from Baikonur Cosmodrome

Loading…

Next Passes (next 24 hours)

TLE

FreshSource: Space-Track

Epoch: Sep 14, 2026, 03:24 UTC

1 34712U 09016C   26257.14218580  .00001325  00000-0  53071-3 0  9994
2 34712  45.9445 160.6765 4906143 339.7740   6.1542  5.69371972348564

Track BREEZE-M DEB in real time with AllMySat

Download on the App Store